Skip Page Navigation
NASA JPL Caltech
NASA Logo - Jet Propulsion Laboratory + View the NASA Portal
+ Center for Near-Earth Object Studies
JPL Home Earth Solar System Stars & Galaxies Technology
JPL Solar System Dynamics
BODIES ORBITS EPHEMERIDES TOOLS PHYSICAL DATA DISCOVERY FAQ SITE MAP
JPL Small-Body Database Browser
Search: [ help ]  
(2010 VC28 = 2010 UL88)
Classification: Main-belt Asteroid          SPK-ID: 3414699
Ephemeris | Orbit Diagram | Orbital Elements | Mission Design | Physical Parameters ]

[ show orbit diagram ]
Orbital Elements at Epoch 2459200.5 (2020-Dec-17.0) TDB
Reference: JPL 23 (heliocentric ecliptic J2000)
 Element Value Uncertainty (1-sigma)   Units 
e .1574195355550933 6.6597e-08  
a 2.339031541253953 2.4697e-08 au
q 1.970822282381041 1.6449e-07 au
i 2.981434700040259 7.6271e-06 deg
node 194.5450372123653 0.00011692 deg
peri 214.1871267062561 0.00012104 deg
M 294.2603385314226 2.982e-05 deg
tp 2459439.103882832094
(2021-Aug-12.60388283)
0.00010986 TDB
period 1306.629755929174
3.58
2.0695e-05
5.666e-08
d
yr
n .2755179869174155 4.3637e-09 deg/d
Q 2.707240800126864 2.8585e-08 au
  Orbit Determination Parameters
   # obs. used (total)      163  
   data-arc span      5112 days (14.00 yr)  
   first obs. used      2005-04-04  
   last obs. used      2019-04-03  
   planetary ephem.      DE441  
   SB-pert. ephem.      SB441-N16  
   condition code      0  
   norm. resid. RMS      .54023  
   source      ORB  
   producer      Otto Matic  
   solution date      2021-Apr-15 04:25:25  

Additional Information
 Earth MOID = .980751 au 
 Jupiter MOID = 2.66012 au 
 T_jup = 3.547 
[ hide covariance matrix ]
Orbital Elements at Epoch 2457285.5 (2015-Sep-20.0) TDB
Reference: JPL 23 (heliocentric ecliptic J2000)
 Element Value Uncertainty (1-sigma)   Units 
e .1585849600731052 6.6253e-08  
q 1.967531390210117 1.637e-07 au
tp 2456827.699426424201
(2014-Jun-19.19942642)
9.7224e-05 TDB
node 194.6549357308867 0.00011693 deg
peri 214.2903682077816 0.00012096 deg
i 2.981529399347718 7.6268e-06 deg
  Orbit Determination Parameters
   # obs. used (total)      163  
   data-arc span      5112 days (14.00 yr)  
   first obs. used      2005-04-04  
   last obs. used      2019-04-03  
   planetary ephem.      DE441  
   SB-pert. ephem.      SB441-N16  
   condition code      0  
   norm. resid. RMS      .54023  
   source      ORB  
   producer      Otto Matic  
   solution date      2021-Apr-15 04:25:25  

Additional Information
 Jupiter MOID = 2.66012 au 
 T_jup = 3.547 
Orbit Covariance (6×6)
  e q tp node peri i
e 4.389404669226283E-15 -1.077123831268981E-14 -3.161675143265616E-12 -2.727512380205576E-14 -1.121939583429689E-12 7.995587081468917E-16
q -1.077123831268981E-14 2.679746448909856E-14 7.528463400366126E-12 6.658869583824413E-14 2.720157483655515E-12 -1.282212894379502E-15
tp -3.161675143265616E-12 7.528463400366126E-12 9.452446864426042E-9 1.748760510000799E-11 3.026441490131953E-9 -9.720891907644914E-12
node -2.727512380205576E-14 6.658869583824413E-14 1.748760510000799E-11 1.367219449685523E-8 -1.364594376302916E-8 -2.534203114799735E-10
peri -1.121939583429689E-12 2.720157483655515E-12 3.026441490131953E-9 -1.364594376302916E-8 1.463062328213847E-8 2.500780423859613E-10
i 7.995587081468917E-16 -1.282212894379502E-15 -9.720891907644914E-12 -2.534203114799735E-10 2.500780423859613E-10 5.816778686681259E-11

Ephemeris | Orbit Diagram | Orbital Elements | Mission Design | Physical Parameters ]

Physical Parameter Table
Parameter Symbol Value Units Sigma Reference Notes
absolute magnitude H 17.5   n/a MPO327079  

Alternate Designations
 2010 VC28 = 2005 GY201 = 2008 CT90 = 2010 UL88 
Ephemeris | Orbit Diagram | Orbital Elements | Mission Design | Physical Parameters ]
ABOUT SSD CREDITS/AWARDS PRIVACY/COPYRIGHT GLOSSARY LINKS
FirstGov 2021-Apr-20 18:18 UT
(server date/time)  
NASA Home Page
Site Manager:   Ryan S. Park
Webmaster  Alan B. Chamberlin